AirNav   Pilot Hours Calculator
 
 392 users online  

4TX2 Stage Coach Hills Airport
Westlake, Texas, USA

GOING TO WESTLAKE?


FAA INFORMATION EFFECTIVE 20 JUNE 2019

Location

FAA Identifier: 4TX2
Lat/Long: 32-58-00.4490N / 097-14-01.0530W
32-58.007483N / 097-14.017550W
32.9667914 / -97.2336258
(estimated)
Elevation: 684 ft. / 208 m (estimated)
Variation: 07E (1985)
From city: 2 miles SW of WESTLAKE, TX
Time zone: UTC -5 (UTC -6 during Standard Time)
Zip code: 76262

Airport Operations

Airport use: Private use. Permission required prior to landing
Activation date: 07/1973
Control tower: no
ARTCC: FORT WORTH CENTER
FSS: FORT WORTH FLIGHT SERVICE STATION
Attendance: UNATNDD
Wind indicator: yes
Segmented circle: yes

Airport Communications

WX ASOS at AFW (5 nm W): PHONE 817-491-6188
WX ASOS at DFW (11 nm SE): PHONE 972-615-2608
WX ASOS at FTW (11 nm SW): PHONE 817-740-3346
WX ASOS at DTO (14 nm N): 119.325 (940-383-8457)
WX AWOS-3P at GPM (19 nm SE): 118.475 (972-606-1433)
WX ASOS at GKY (19 nm S): 127.375 (817-557-0251)
WX AWOS-3 at ADS (20 nm E): PHONE 972-386-4855

Nearby radio navigation aids

VOR radial/distance  VOR name  Freq  Var
FUZr324/5.4RANGER VORTAC115.7006E
TTTr295/11.4MAVERICK VOR/DME113.1006E
CVEr279/17.2COWBOY VOR/DME116.2006E

 
NDB name  Hdg/Dist  Freq  Var  ID
MUFIN050/8.336508EFT ..-. -
MESQUITE282/36.724803EPQF .--. --.- ..-.

Airport Services

Airframe service: NONE
Powerplant service: NONE

Runway Information

Runway 17/35

Dimensions: 2700 x 90 ft. / 823 x 27 m
Surface: turf
RUNWAY 17  RUNWAY 35
Traffic pattern: rightleft

Airport Ownership and Management from official FAA records

Ownership: Privately-owned
Owner: STEVE THORNTON
13187 THORTON DRIVE
ROANOKE, TX 76262
Phone (817) 995-9647
Manager: J. L. HASKINS
5920 STEVE COURT
WESTLAKE , TX 76262
Phone 817-430-1987

Airport Operational Statistics

Aircraft based on the field: 17
Single engine airplanes: 16
Multi engine airplanes: 1
    

Additional Remarks

TREES ALONG WESTERN EDGE OF RY.
FOR CD CTC REGIONAL APCH AT 972-615-2799.

Instrument Procedures

There are no published instrument procedures at 4TX2.

Some nearby airports with instrument procedures:

KAFW - Fort Worth Alliance Airport (5 nm W)
KDFW - Dallas-Fort Worth International Airport (11 nm SE)
KFTW - Fort Worth Meacham International Airport (11 nm SW)
4T2 - Kenneth Copeland Airport (13 nm W)
KDTO - Denton Enterprise Airport (14 nm N)
KNFW - Fort Worth Naval Air Station JRB (Carswell Field) Airport (16 nm SW)
KGPM - Grand Prairie Municipal Airport (19 nm SE)
KGKY - Arlington Municipal Airport (19 nm S)
KADS - Addison Airport (20 nm E)
 
Loc | Ops | Rwys | IFR | FBO | Links
Com | Nav | Svcs | Stats | Notes
Area around 4TX2 (Stage Coach Hills Airport)
 
Road maps at: MapQuest Bing Google
 
Aerial photo
WARNING: Photo may not be current or correct
Aerial photo of 4TX2 (Stage Coach Hills Airport)
Do you have a better or more recent aerial photo of Stage Coach Hills Airport that you would like to share? If so, please send us your photo.

 
Sectional chart

 
Airport distance calculator
Flying to Stage Coach Hills Airport? Find the distance to fly.

From to 4TX2

Sunrise and sunset
Times for 25-Jun-2019
 Local
(UTC-5)
 Zulu
(UTC)
Morning civil twilight05:5410:54
Sunrise06:2311:23
Sunset20:4001:40
Evening civil twilight21:0902:09

Current date and time
Zulu (UTC)  25-Jun-2019 07:22:52
Local (UTC-5)  25-Jun-2019 02:22:52
 
METAR
KAFW 
4nm W 
250653Z 14006KT 9SM OVC240 23/21 A2990 RMK AO2 SLP110 T02330206
KFTW 
10nm SW 
250653Z 13006KT 10SM CLR 23/21 A2990 RMK AO2 SLP116 T02280206
KDFW 
12nm E 
250653Z 13008KT 10SM FEW015 BKN210 OVC250 23/21 A2988 RMK AO2 SLP109 T02330211
KDTO 
14nm N 
250653Z AUTO 12007KT 10SM CLR 23/21 A2990 RMK AO2 SLP116 T02330206
KNFW 
16nm SW 
250652Z AUTO 13005KT 10SM CLR 24/20 A2990 RMK AO2 SLP111 T02390200 CHINO N VISNO N $
KGPM 
18nm SE 
250655Z AUTO 11004KT 10SM CLR 23/23 A2991 RMK AO2 T02320232
KGKY 
19nm S 
250653Z AUTO 13008KT 10SM CLR 23/21 A2989 RMK AO2 SLP111 T02330211
TAF
KAFW 
4nm W 
250520Z 2506/2606 14006KT P6SM OVC250 FM251300 17007KT P6SM SCT025 BKN060 TEMPO 2514/2516 BKN022 FM251800 17010KT P6SM SCT060 SCT150 FM252200 18012KT P6SM VCTS BKN070CB FM260100 15011KT P6SM SCT090 BKN300
KFTW 
10nm SW 
250520Z 2506/2606 14006KT P6SM OVC250 FM251300 17007KT P6SM SCT025 BKN060 TEMPO 2514/2516 BKN022 FM251800 17010KT P6SM SCT060 SCT150 FM252200 18012KT P6SM VCTS BKN070CB FM260100 15011KT P6SM SCT090 BKN300
KDFW 
12nm E 
250520Z 2506/2612 14006KT P6SM OVC250 FM251300 17007KT P6SM SCT025 BKN060 TEMPO 2514/2516 BKN022 FM251800 17010KT P6SM SCT060 SCT150 FM252200 18012KT P6SM VCTS BKN070CB FM260100 15011KT P6SM SCT090 BKN300
KNFW 
16nm SW 
2423/2523 VRB06KT 9999 SCT055 BKN250 QNH2982INS FM251200 17008KT 9999 BKN018 QNH2991INS FM251800 18008KT 9999 BKN040 BKN120 QNH2990INS FM252200 18009KT 9999 VCTS SCT050CB BKN120 QNH2989INS AUTOMATED SENSOR METWATCH 2504 TIL 2511 T24/2512Z T32/2522Z FN20048
KGKY 
19nm S 
250520Z 2506/2606 14006KT P6SM OVC250 FM251300 17007KT P6SM SCT025 BKN060 TEMPO 2514/2516 BKN022 FM251800 17010KT P6SM SCT060 SCT150 FM252100 18012KT P6SM VCTS BKN070CB FM260000 15011KT P6SM SCT090 BKN300
NOTAMs
Click for the latest NOTAMs
NOTAMs are issued by the DoD/FAA and will open in a separate window not controlled by AirNav.

 

 
 

Would you like to see your business listed on this page?

 If your business provides an interesting product or service to pilots, flight crews, aircraft, or users of the Stage Coach Hills Airport, you should consider listing it here.  To start the listing process, click on the button below
 
Add a business
 

Other Pages about Stage Coach Hills Airport

Update a link
 
Copyright © AirNav, LLC. All rights reserved. Privacy Policy  Contact